User: anonymous   Login
Location: Eastlake (historical)
(39.0077°N, 122.6678°W)
Time: 09:26:41
(UTC+00:00)
Language:

Meteor 2-3 Rocket - Orbit

View from above orbital plane
View from above orbital plane
View from above satellite
View from above satellite

Ground track
Ground track

The orbit data is extracted from the following two-line orbital elements,

1 10515U 77117B   21064.02259211  .00000115  00000-0  59370-4 0  9995
2 10515  81.2475  40.3096 0029128  11.2609 348.9206 14.08736274220833
Epoch (UTC): 05 March 2021 00:32:31
Eccentricity: 0.0029128
inclination: 81.2475°
perigee height: 842 km
apogee height: 885 km
right ascension of ascending node: 40.3096°
argument of perigee: 11.2609°
revolutions per day: 14.08736274
mean anomaly at epoch: 348.9206°
orbit number at epoch: 22083

The dashed part of the orbit path shows where the satellite is in the earth's shadow,  

DLR